Location: Gad�tanya
(48.0500°N, 20.8500°E)
Time: 10:25:13
(UTC+00:00)

USA 215 - Pass Details

Date: 05 July 2020
Orbit: 1102 x 1106 km, 123.0° (Epoch: 08 August)

Event Time Altitude Azimuth Distance (km) Brightness Sun altitude
Rises 20:55:51 0° 54° (NE) 3,926 6.3 -15.4°
Reaches altitude 10° 20:58:20 10° 54° (NE) 2,966 5.7 -15.6°
Maximum altitude 21:04:54 88° 329° (NNW) 1,108 3.3 -16.0°
Drops below altitude 10° 21:11:27 10° 238° (WSW) 2,955 5.4 -16.5°
Sets 21:13:55 0° 238° (WSW) 3,911 6.0 -16.6°
